COSMOS 2251 DEB

基本信息
目录编号:
35824
目录名称:
COSMOS 2251 DEB
国际标识:
1993-036ASW
轨道中心:
EARTH
物体状态:
在轨
发射日期:
1993-06-16 UTC
轨道信息
数据来源: 国际轨道数据
星历时间: 2026-07-27T02:03:13+0800
半长轴: 7309.566km
偏心率: 0.0253401
轨道倾角: 73.843°
近地点辐角: 65.451°
升交点赤经: 19.969°
平近点角: 297.280°
近地点: 746.203km
远地点: 1116.655km
周期: 103.657分钟
每日圈数: 13.892022
详细信息
发射场:
PKMTR
轨道高度:
LEO
数据来源:
AOE Integration Group
参考系:
TEME
时间系统:
UTC
历元类型:
SGP4
2D轨道图
3D轨道图
轨道高度分析图
轨道倾角分析图
轨道综合分析图
查看轨道综合分析图